Probability
8 3 0 0 0 0 0 0 0 0 0 0 0 0 0 0 0 0 0 0 0 0 0 0 0 0 0 0 0 0 0 0 0 0 0 0 0 0 0 0 1 1 1 0 0 0 0 0 0
4 2 0 0 0 0 0 0 0 0 0 0 0 0 0 0 0 0 0 0 0 0 0 0 0 0 0 0 0 0 0 0 0 0 0 0 0 0 0 0 0 0 0 0 0 0 0 0 0
1 0 0 0 0 0 0 0 0 0 0 0 0 0 0 0 0 0 0 0 0 0 0 0 0 0 0 0 0 0 0 0 0 0 0 0 0 0 0 0 0 0 0 0 0 0 0 0 0
0 0 0 0 0 0 0 0 0 0 0 0 0 0 0 0 0 0 0 0 0 0 0 0 0 0 0 0 0 0 0 0 0 0 0 0 0 0 0 0 0 0 0 0 0 0 0 0 0
0 0 0 0 0 0 0 0 0 0 0 0 0 0 0 0 0 0 0 0 0 0 0 0 0 1 1 1 1 0 0 0 0 0 0 0 0 0 0 0 0 0 0 0 0 0 0 0 0
0 0 0 0 0 0 0 0 0 0 0 0 0 0 0 0 0 0 0 0 0 1 0 0 0 1 2 2 2 1 0 0 0 0 0 0 0 0 0 0 0 0 0 0 0 0 0 0 0
0 0 0 0 0 0 0 0 0 0 0 0 0 0 0 0 0 0 0 0 0 0 0 0 0 2 3 3 2 1 0 0 0 0 0 0 0 0 0 0 0 0 0 0 0 0 0 0 0
0 0 0 0 0 0 0 0 0 0 0 0 0 0 0 0 0 0 0 0 1 1 0 0 0 1 2 3 2 1 0 0 0 0 0 0 0 0 0 0 0 0 0 0 0 0 0 0 0
0 0 0 0 0 0 0 0 0 0 0 0 0 0 0 0 0 0 0 1 2 2 1 0 0 1 1 2 2 1 1 1 0 0 0 0 0 0 0 0 0 0 0 0 0 0 0 0 0
0 0 0 0 0 0 0 0 0 0 0 0 0 0 0 0 0 0 0 1 2 2 1 0 0 0 1 3 2 1 1 1 2 1 1 1 1 0 0 0 0 0 0 0 0 0 0 0 0
0 0 0 0 0 0 0 0 0 0 0 0 0 0 0 0 0 0 0 0 1 1 0 0 0 0 1 2 2 1 1 2 2 2 1 2 2 1 1 0 0 0 0 0 0 0 0 0 0
0 0 0 0 0 0 0 0 0 0 0 0 0 0 0 0 0 0 0 0 0 0 0 0 0 0 1 1 1 2 1 1 2 1 1 2 2 1 0 0 0 0 1 1 0 0 0 0 0
0 0 0 0 0 0 0 0 0 0 0 0 0 0 0 0 0 0 0 0 0 0 0 0 0 0 0 0 1 1 1 0 0 1 1 1 1 1 0 0 0 0 1 2 1 0 0 0 0
0 0 0 0 0 0 0 0 0 0 0 0 0 0 0 0 0 0 0 0 0 0 0 0 0 0 0 0 0 0 0 0 0 1 1 0 0 0 0 0 0 0 1 2 1 0 0 0 0
0 0 0 0 0 0 0 0 0 0 0 0 0 0 0 0 0 0 0 0 0 0 0 0 0 0 0 0 0 0 0 0 0 1 0 0 0 1 1 1 0 0 1 1 1 0 0 0 0
0 0 0 0 0 0 0 0 0 0 0 0 0 0 0 0 0 0 0 0 0 0 0 0 0 0 0 0 0 0 0 0 0 0 0 0 1 1 2 2 1 1 1 0 0 0 0 0 0
0 0 0 0 0 0 0 0 0 0 0 0 0 0 0 0 0 0 0 0 0 0 0 0 0 0 0 0 0 0 0 0 0 0 0 0 1 2 2 3 4 3 1 0 0 0 0 0 0
0 0 0 0 0 0 0 0 0 0 0 0 0 0 0 0 0 0 0 0 0 0 0 0 0 0 0 0 0 0 0 0 0 0 0 0 1 1 1 2 4 4 1 0 0 0 0 0 0
0 0 0 0 0 0 0 0 0 0 0 0 0 0 0 0 0 0 0 0 0 0 0 0 0 0 0 0 0 0 0 0 0 0 0 0 0 1 1 1 2 3 2 0 0 0 0 0 0
0 0 0 0 0 0 0 0 0 0 0 0 0 0 0 0 0 0 0 0 0 0 0 0 0 0 0 0 0 0 0 0 0 0 0 0 1 1 2 1 1 2 2 1 0 0 0 0 0
0 0 0 0 0 0 0 0 0 0 0 0 0 0 0 0 0 0 0 0 0 0 0 0 0 0 0 0 0 0 0 0 0 0 0 0 1 1 3 2 1 2 3 3 1 0 0 0 0
0 0 0 0 0 0 0 0 0 0 0 0 0 0 0 0 0 0 0 0 0 0 0 0 0 0 0 0 0 0 0 0 0 0 0 0 1 2 3 3 2 2 3 4 2 0 0 0 0
0 0 0 0 0 0 0 0 0 0 0 0 0 0 0 0 0 0 0 0 0 0 0 0 0 0 0 0 0 0 0 0 0 0 0 0 1 2 3 3 2 1 1 2 1 0 0 0 0
0 0 0 0 0 0 0 0 0 0 0 0 0 0 0 0 0 0 0 0 0 0 0 0 0 0 0 0 0 0 0 0 0 0 0 0 1 2 3 3 2 1 0 0 1 1 1 0 0
0 0 0 0 0 0 0 0 0 0 0 0 0 0 0 0 0 0 0 0 0 0 0 0 0 0 0 0 0 0 0 0 0 0 0 0 1 2 3 3 1 0 0 0 0 1 1 0 0
0 0 0 0 0 0 0 0 0 0 0 0 0 0 0 0 0 0 0 0 0 0 0 0 0 0 0 0 0 0 0 0 0 0 0 0 1 2 3 2 1 0 0 0 0 1 1 0 0
0 0 0 0 0 0 0 0 0 0 0 0 0 0 0 0 0 0 0 0 0 0 0 0 0 0 0 0 0 0 0 0 0 0 0 0 1 2 1 1 0 0 0 0 0 0 0 0 0
0 0 0 0 0 0 0 0 0 0 0 0 0 0 0 0 0 0 0 0 0 0 0 0 0 0 0 0 0 0 0 0 0 0 0 0 1 1 0 0 0 0 0 0 0 0 1 0 0
0 0 0 0 0 0 0 0 0 0 0 0 0 0 0 0 0 0 0 0 0 0 0 0 0 0 0 0 0 0 0 0 0 0 0 0 0 1 0 0 0 0 0 0 0 1 2 1 0
0 0 0 0 0 0 0 0 0 0 0 0 0 0 0 0 0 0 0 0 0 0 0 0 0 0 0 0 0 0 0 0 0 0 0 0 0 1 0 0 0 0 0 0 0 1 2 1 0
Wind_Speed
7 4 2 1 3 5 3 3 3 6 6 7 11 11 9 7 5 5 1 9 12 10 7 8 10 10 10 10 9 9 8 8 7 7 7 6 6 6 5 5 6 6 6 5 5 5 5 5 5
3 3 1 2 5 4 3 4 7 6 6 8 11 10 9 8 7 6 4 8 12 10 7 8 11 11 10 9 9 8 8 7 7 6 6 6 6 5 5 5 5 5 5 5 5 5 5 4 4
3 2 1 3 3 3 2 2 6 8 8 6 7 7 6 5 4 3 5 10 10 9 7 8 11 11 10 9 9 8 8 7 7 6 6 6 5 5 4 4 5 5 5 5 4 4 4 3 3
2 2 4 5 6 3 3 2 5 7 9 9 7 7 5 6 3 4 9 10 9 8 7 8 11 10 10 9 9 8 8 7 7 6 6 5 5 5 5 5 5 5 4 4 4 4 3 2 2
3 4 6 5 6 5 5 6 8 10 6 9 10 7 5 7 6 7 8 8 9 7 6 7 11 10 9 9 8 8 8 8 7 7 6 6 6 6 5 5 5 5 5 5 5 4 3 2 1
4 4 5 3 4 3 4 6 7 10 7 7 7 6 4 5 6 5 5 5 6 6 5 5 9 10 9 9 9 9 8 8 8 8 7 7 7 6 6 6 6 6 5 5 5 4 4 3 3
5 4 3 3 3 4 3 4 7 6 7 7 5 5 3 6 5 4 5 6 6 5 3 1 1 3 6 8 9 9 9 10 9 9 8 8 8 7 7 7 7 7 7 7 6 5 5 5 4
5 5 3 2 2 2 3 4 7 9 7 6 6 5 3 4 4 6 7 7 6 5 4 3 2 1 1 3 7 9 9 10 10 10 10 10 9 9 9 9 9 9 9 9 8 7 7 6 6
6 6 2 2 3 1 3 5 6 7 8 8 7 5 3 4 4 7 7 7 6 6 4 3 3 3 2 3 5 6 8 9 9 9 11 10 5 5 6 9 11 11 11 10 10 9 9 8 7
6 4 1 2 4 5 5 6 6 6 8 6 6 6 5 5 7 8 8 7 6 5 5 4 4 4 4 3 2 2 3 3 4 4 5 4 4 5 7 9 14 14 13 12 11 11 9 7 3
5 5 3 3 6 6 6 7 6 5 6 3 2 3 5 6 7 8 7 5 4 3 4 4 3 4 4 3 2 1 1 2 3 4 5 4 4 4 5 4 7 9 10 6 7 7 4 4 3
7 5 4 4 5 5 5 5 6 6 3 1 2 3 5 7 7 6 5 5 4 4 4 4 3 3 3 3 2 2 1 2 3 4 5 4 3 4 4 4 4 4 4 4 4 3 5 5 5
7 6 8 10 13 11 11 8 6 3 2 2 4 5 5 6 5 4 4 5 5 6 6 5 4 4 3 3 2 2 2 3 3 3 3 4 4 4 4 4 4 5 4 5 5 5 5 6 6
8 10 9 8 9 6 10 5 4 1 2 3 4 4 4 5 5 5 6 6 6 6 7 6 5 5 4 3 3 3 3 3 3 3 4 4 4 4 4 4 4 5 5 5 6 6 6 6 5
10 9 5 3 5 6 8 7 2 2 4 3 3 4 5 5 5 5 4 5 5 5 6 7 6 5 5 5 4 4 3 3 3 3 4 4 4 4 4 3 4 4 5 5 4 5 5 5 5
4 5 2 2 4 5 7 3 1 2 5 4 4 4 4 4 4 4 4 4 5 5 6 7 7 7 6 5 5 4 4 4 3 3 3 4 4 4 3 3 4 4 4 4 4 4 4 4 3
2 2 3 2 2 4 5 4 2 3 6 5 4 4 4 4 4 4 4 5 5 5 6 7 7 7 6 6 5 4 4 4 3 3 3 4 4 4 3 3 3 4 3 4 5 4 3 3 2
3 3 3 4 2 5 5 4 3 3 6 5 3 3 3 4 3 3 4 5 6 6 6 7 7 7 7 5 4 3 4 4 3 3 3 4 4 4 4 3 4 3 3 3 3 3 3 2 2
4 5 5 3 4 5 6 5 4 3 4 4 3 3 3 3 3 4 4 5 5 6 7 7 7 7 6 4 4 4 4 4 4 3 4 4 4 4 3 3 3 3 4 4 4 3 4 3 2
8 8 4 2 3 5 5 3 2 3 3 4 3 3 2 3 4 5 5 5 5 5 6 6 7 8 7 5 4 3 4 3 3 3 4 4 4 4 3 3 3 4 3 4 5 4 3 2 3
5 4 5 4 2 4 6 1 1 1 2 3 3 2 1 2 2 4 4 5 5 5 6 6 7 7 7 7 4 4 3 3 3 4 3 3 3 3 3 3 3 3 3 4 5 5 5 4 3
2 1 4 5 4 3 5 2 3 2 1 1 1 1 1 1 2 3 4 5 5 5 5 5 6 7 7 7 5 5 4 4 4 4 4 4 3 3 2 2 3 3 3 4 5 5 4 5 4
2 1 1 2 2 0 1 3 3 2 2 2 1 1 1 1 1 3 4 4 5 5 5 5 6 6 7 6 6 5 4 4 4 4 4 4 4 3 2 2 2 2 3 4 5 5 5 4 4
2 5 6 5 5 1 3 5 4 4 4 2 2 2 2 1 2 3 4 4 5 5 5 5 6 6 7 7 6 5 6 6 6 5 4 4 3 3 3 2 2 1 2 3 4 5 6 5 5
6 6 5 5 4 4 1 3 4 4 4 4 4 3 2 2 2 3 4 5 5 6 6 5 6 6 7 7 7 7 6 5 5 5 4 4 3 3 3 3 2 1 1 2 3 4 5 6 6
1 7 6 3 3 4 2 1 4 3 3 3 4 3 2 2 2 3 3 4 4 5 5 5 6 6 7 7 7 7 6 4 4 4 4 4 3 3 3 3 3 2 1 1 2 2 3 4 5
1 1 5 6 1 1 2 1 3 1 2 2 2 2 2 2 2 2 3 3 3 4 5 5 5 5 6 7 7 7 7 6 5 6 5 4 4 3 4 4 3 3 2 1 1 1 2 2 4
1 3 5 3 1 2 3 3 5 5 5 3 3 3 3 2 2 3 3 3 3 3 4 4 4 4 5 6 6 6 6 6 6 6 6 6 5 5 5 4 4 4 3 2 0 1 1 2 2
2 2 4 3 4 4 3 7 6 8 7 6 5 5 4 3 3 3 3 3 3 3 3 3 4 4 5 6 6 6 7 7 7 6 7 6 5 6 6 5 5 4 3 2 1 0 1 2 2
2 3 5 3 1 3 3 7 3 6 7 6 6 4 4 3 3 3 3 2 2 3 3 3 3 4 4 5 5 6 6 7 7 7 7 6 6 6 6 6 5 4 4 3 2 2 1 1 2
Wind_Direction
175 152 125 111 55 49 49 10 64 65 58 61 71 77 76 55 77 121 142 143 137 144 148 143 140 137 136 135 135 134 135 134 132 130 127 123 120 118 116 113 110 109 112 111 105 100 93 85 75
132 122 139 63 80 69 27 23 57 69 119 107 72 69 69 61 67 90 104 139 140 144 149 148 146 142 141 141 140 139 139 139 141 140 137 132 129 126 124 127 125 122 120 120 116 112 105 95 78
139 154 94 61 77 110 81 31 82 69 64 73 74 52 56 49 57 88 146 146 143 146 149 153 151 149 149 149 148 147 147 147 148 150 147 146 145 143 142 140 139 136 134 130 127 124 120 107 88
114 64 44 62 64 41 74 57 78 74 50 48 84 65 58 34 37 119 140 146 142 144 149 159 155 156 156 157 158 158 159 161 161 161 161 162 164 166 162 158 151 147 149 150 144 141 138 128 112
78 73 57 58 53 41 45 43 59 69 57 56 76 82 54 12 57 107 133 140 141 144 153 165 163 166 168 169 171 172 174 176 178 178 179 180 182 183 181 176 172 167 164 163 161 166 170 169 175
66 67 73 74 65 50 45 34 61 68 66 50 63 87 68 19 46 69 100 110 120 136 147 164 174 176 181 184 186 189 191 193 194 194 195 195 197 198 194 191 188 185 183 180 179 190 197 202 220
104 90 96 111 87 44 46 56 48 62 52 25 16 73 46 7 16 57 77 78 75 81 88 95 176 193 198 199 201 202 203 206 206 206 208 208 209 209 206 203 201 201 201 199 198 205 211 217 230
120 99 79 66 98 49 5 58 57 46 47 30 34 63 26 334 5 51 58 56 59 56 49 32 10 344 289 241 225 219 216 217 217 216 215 215 215 215 217 216 215 213 211 209 211 214 219 225 236
85 77 110 179 165 70 8 82 67 58 67 53 52 63 39 358 28 55 53 44 42 41 32 23 357 327 303 267 243 237 230 228 227 225 224 220 217 218 224 226 223 223 220 216 217 220 225 231 242
77 98 147 190 145 123 55 55 86 68 53 45 40 35 33 29 38 46 48 39 31 21 18 19 1 341 318 293 275 259 245 245 236 228 227 221 213 218 225 228 229 227 224 221 221 225 230 235 243
80 117 125 97 130 120 88 57 44 96 56 37 41 16 23 36 39 43 43 36 23 9 7 5 353 344 344 327 310 285 283 274 255 242 232 227 223 224 228 221 232 230 225 220 223 225 228 229 233
86 67 97 101 109 92 86 94 67 63 108 138 88 57 48 41 36 37 34 23 8 5 354 344 340 340 342 341 326 297 280 259 252 248 240 227 225 226 223 219 214 209 207 203 212 216 225 231 235
102 108 92 96 89 92 95 92 98 80 121 90 74 59 51 48 40 31 29 20 8 2 352 343 349 350 340 332 316 319 289 273 262 260 254 233 224 227 223 219 212 209 201 203 211 218 224 231 235
123 118 118 116 109 100 99 89 86 93 98 83 70 54 44 41 39 31 21 14 7 0 351 342 351 351 344 335 318 304 295 287 281 270 263 249 231 225 216 213 212 210 206 211 213 217 221 227 228
110 111 104 115 116 136 103 61 68 138 103 79 59 52 45 39 39 30 16 7 360 353 349 344 347 355 343 331 317 314 295 287 279 275 274 265 247 231 221 213 212 212 205 207 214 223 225 228 225
92 95 125 203 156 155 102 103 250 139 107 80 57 58 51 40 37 19 15 8 1 355 348 344 349 343 332 325 313 308 301 290 280 277 276 271 262 248 232 222 218 209 201 201 202 211 221 225 217
104 154 183 202 160 122 111 149 205 139 106 95 79 70 59 43 27 14 14 9 3 357 348 342 338 336 330 321 313 308 305 295 284 285 282 277 272 262 243 231 226 210 199 200 209 200 202 212 213
211 187 166 177 155 111 119 156 182 139 115 107 90 76 58 44 14 6 10 10 6 359 353 346 341 335 330 322 316 312 314 306 296 286 278 276 269 260 243 232 227 212 202 198 197 195 196 196 195
144 131 136 159 147 118 141 161 178 150 113 104 91 73 52 22 353 2 5 8 3 357 353 347 345 339 338 332 326 320 316 311 307 295 289 283 276 265 246 240 224 214 210 205 195 187 191 198 169
96 105 113 138 153 124 144 166 185 167 139 138 126 102 56 14 4 359 357 359 355 347 344 345 344 338 336 326 309 287 288 288 286 295 308 299 290 275 254 231 224 216 207 205 198 187 176 181 171
84 131 167 174 119 101 119 72 214 149 109 109 108 113 71 39 7 345 344 344 342 340 338 341 335 334 332 331 326 325 322 314 323 321 319 310 304 293 272 241 227 218 205 205 204 197 183 182 184
134 172 154 149 134 204 161 197 237 193 131 110 125 103 66 14 346 332 333 336 335 329 329 332 333 334 333 336 338 339 337 321 304 303 305 315 318 306 295 262 232 220 209 206 212 204 192 177 181
194 210 139 151 143 20 158 146 258 182 212 240 209 185 209 255 319 328 326 324 326 326 330 332 333 335 334 336 334 331 326 310 306 312 319 323 324 316 316 300 258 231 219 216 210 199 193 191 183
71 36 31 50 71 320 238 159 241 227 210 206 206 203 225 265 309 322 324 326 326 329 334 337 338 337 337 340 340 339 331 328 332 336 333 326 318 318 327 320 298 260 230 225 217 202 195 199 192
65 68 28 5 12 262 267 126 238 229 196 179 184 205 228 250 291 315 324 329 329 332 337 340 343 340 340 344 346 344 338 336 337 329 328 329 324 320 319 326 316 296 256 234 218 202 196 194 190
152 133 146 196 234 281 360 201 251 221 181 162 171 194 209 242 273 297 308 314 319 326 335 342 344 338 342 347 344 345 348 345 339 334 337 334 323 318 326 332 325 316 295 260 219 205 202 191 194
85 129 169 143 184 327 300 299 302 204 176 175 187 187 210 238 254 281 300 310 315 322 328 334 341 340 343 346 345 350 355 356 351 349 352 347 336 341 348 345 341 337 329 305 225 210 203 190 193
149 143 79 95 120 306 289 244 231 210 210 201 195 203 221 238 258 279 291 299 304 314 323 336 342 342 342 351 354 1 357 356 356 1 1 357 353 355 351 349 350 353 348 339 303 221 207 184 192
28 60 92 114 149 156 263 268 223 194 193 191 203 210 215 227 244 268 281 291 301 319 329 341 347 351 354 356 355 1 360 359 4 7 3 359 360 3 3 356 356 356 354 349 353 270 180 175 172
152 147 134 138 231 165 193 266 254 181 184 183 200 213 211 215 231 248 266 301 315 320 324 335 346 355 356 358 4 4 1 2 8 6 1 2 6 7 6 5 8 8 4 8 22 27 49 148 153